Hourly Data Report for September 17, 2017

All times are specified in Local Standard Time (LST). Add 1 hour to adjust for Daylight Saving Time where and when it is observed.

CLYDE RIVER A
NUNAVUT

70°29'09.000" N
68°31'01.000" W
26.50 m
2400804
71090
YCY

Download Data

Hourly Data (September 2017)
Hourly Data Report for September 17, 2017
Temp Definition
°C
Dew Point Temp Definition
°C
Rel Hum Definition
%
Wind Dir Definition
10's deg

Wind Spd Definition
km/h
Visibility Definition
km
Stn Press Definition
kPa
Hmdx Definition


Wind Chill Definition


Weather Definition


TIME
00:00 Legend Double Dagger 0.2 -2.2 84 28 13 16.1 100.61     LegendNANA
01:00 Legend Double Dagger 0.7 -1.3 87 32 22 16.1 100.62     LegendNANA
02:00 Legend Double Dagger 0.1 -1.4 90 34 9 16.1 100.69     LegendNANA
03:00 Legend Double Dagger -0.1 -1.1 93 33 11 16.1 100.76   -4 LegendNANA
04:00 Legend Double Dagger -0.5 -1.4 94 32 9 9.7 100.80   -4 Snow
05:00 Legend Double Dagger -0.4 -1.3 94 29 5 16.1 100.81   -2 LegendNANA
06:00 Legend Double Dagger -0.3 -1.6 91 LegendMM LegendMM 16.1 100.84     LegendNANA
07:00 Legend Double Dagger 0.0 -1.5 90 LegendMM LegendMM LegendMM 100.86     LegendNANA
08:00 Legend Double Dagger 0.1 -1.7 88 LegendMM LegendMM LegendMM 100.87     LegendNANA
09:00 Legend Double Dagger 0.1 -1.5 89 10 5 16.1 100.88     LegendNANA
10:00 Legend Double Dagger 0.4 -1.5 87 12 9 16.1 100.87     LegendNANA
11:00 Legend Double Dagger 0.7 -1.2 87 13 13 16.1 100.86     LegendNANA
12:00 Legend Double Dagger 1.1 -0.8 88 12 17 16.1 100.85     LegendNANA
13:00 Legend Double Dagger 2.1 -1.8 76 16 8 16.1 100.86     LegendNANA
14:00 Legend Double Dagger 2.6 -2.3 70 14 15 16.1 100.91     LegendNANA
15:00 Legend Double Dagger 2.5 -2.4 70 13 11 16.1 100.93     LegendNANA
16:00 Legend Double Dagger 2.1 -2.0 74 17 8 16.1 100.96     LegendNANA
17:00 Legend Double Dagger 1.5 -1.6 80 16 13 16.1 100.96     LegendNANA
18:00 Legend Double Dagger 0.8 -1.4 85 15 8 16.1 101.00     LegendNANA
19:00 Legend Double Dagger 0.4 -0.8 92 14 18 16.1 100.99     LegendNANA
20:00 Legend Double Dagger 0.3 -0.9 92 14 15 16.1 100.98     LegendNANA
21:00 Legend Double Dagger 0.6 -1.8 84 17 13 16.1 100.95     LegendNANA
22:00 Legend Double Dagger 1.3 -1.8 80 14 15 16.1 100.93     LegendNANA
23:00 Legend Double Dagger 2.3 -3.2 67 19 17 16.1 100.87     LegendNANA

Notes on Data Quality.

Legend

  • E = Estimated
  • M = Missing
  • NA = Not Available
  • ‡ = Partner data that is not subject to review by the National Climate Archives
Date modified: